Voltar ao catálogo

STARLINK-5697

AtivoComunicaçõesVLEO
NORAD 55589·PAYLOAD·🇺🇸 United States

Lançado Feb 12, 2023 de Cape Canaveral Space Force Station

Loading…

Próximas Passagens (próximas 24 horas)

TLE

AtualizadoSource: CelesTrak SupGP

Época: Sep 15, 2026, 01:53 UTC

1 55589C 23020W   26258.07895833 -.00023177  00000+0 -83949-3 0  2580
2 55589  43.0047  15.6433 0002230 272.0797 218.5535 15.27587831    12

Acompanhe STARLINK-5697 em tempo real com AllMySat

Download on the App Store